DW8241 Weather Reports


Display with metric or nautical units.
time (UTC)temp
F
wind
direction
speed
MPH
gust
MPH
rain 1hr
in
rain 24hr
in
rain mn
in
humidity
%
barometer
mb
20260510074513 41 16 6.0 11.0 0.00 0.00 0.00 70 1020.1
20260510073009 41 100 0.0 11.0 0.00 0.00 0.00 69 1019.9
20260510071508 42 57 0.0 0.0 0.00 0.00 0.00 70 1019.7
20260510070005 42 41 0.0 0.0 0.00 0.00 0.00 71 1019.7
20260510064601 43 52 2.0 10.0 0.00 0.00 0.00 69 1019.3
20260510063058 44 51 7.0 12.0 0.00 0.00 0.00 65 1019.0
20260510061556 44 37 4.0 9.0 0.00 0.00 0.00 63 1018.8
20260510060053 44 4 4.0 8.0 0.00 0.00 0.00 62 1018.5
20260510054549 44 345 1.0 3.0 0.00 0.00 0.00 63 1018.4
20260510053046 43 343 0.0 0.0 0.00 0.00 0.00 64 1018.2
20260510051547 44 40 0.0 1.0 0.00 0.00 0.00 63 1017.9
20260510050042 44 41 0.0 3.0 0.00 0.00 0.00 61 1017.6
20260510044539 44 41 0.0 1.0 0.00 0.00 0.00 60 1017.5
20260510043041 44 41 0.0 2.0 0.00 0.00 0.00 60 1017.4
20260510041536 44 42 1.0 2.0 0.00 0.00 0.00 60 1017.2
20260510040034 44 49 0.0 2.0 0.00 0.00 0.00 60 1017.0
20260510034540 44 53 0.0 1.0 0.00 0.02 0.00 61 1016.7
20260510033031 45 53 0.0 3.0 0.00 0.02 0.00 59 1016.6
20260510031529 45 83 0.0 0.0 0.00 0.02 0.00 57 1016.4
20260510030028 47 83 1.0 6.0 0.00 0.02 0.00 56 1016.3
20260510024528 47 44 2.0 6.0 0.00 0.02 0.00 53 1016.2
20260510023026 48 61 2.0 10.0 0.00 0.02 0.00 53 1016.2
20260510021523 48 49 3.0 10.0 0.00 0.02 0.00 52 1015.8
20260510020021 49 40 3.0 7.0 0.00 0.02 0.00 52 1015.4
20260510014518 49 41 1.0 4.0 0.00 0.02 0.00 50 1015.1
20260510013017 50 20 2.0 6.0 0.00 0.02 0.00 49 1015.0
20260510011532 51 39 3.0 8.0 0.00 0.02 0.00 47 1014.7
20260510010013 52 360 2.0 4.0 0.00 0.02 0.00 46 1014.5
20260510004513 53 6 4.0 10.0 0.00 0.02 0.00 44 1014.4
20260510003012 53 31 3.0 11.0 0.00 0.02 0.00 44 1014.3
20260510001511 53 342 3.0 12.0 0.00 0.02 0.00 43 1014.4
20260510000014 53 345 4.0 8.0 0.00 0.02 0.00 43 1014.3
20260509234509 53 346 6.0 9.0 0.00 0.02 0.00 43 1014.2
20260509233012 53 23 3.0 10.0 0.00 0.02 0.00 43 1014.2
20260509231511 53 324 4.0 12.0 0.00 0.02 0.00 43 1014.1
20260509230007 53 333 5.0 12.0 0.00 0.02 0.00 43 1014.0
20260509224508 54 338 3.0 11.0 0.00 0.02 0.00 43 1013.9
20260509223006 54 357 4.0 14.0 0.00 0.02 0.00 43 1013.9
20260509221504 55 354 5.0 12.0 0.00 0.02 0.00 42 1013.9
20260509220004 54 323 6.0 12.0 0.00 0.02 0.00 43 1013.8
20260509214503 55 1 5.0 11.0 0.00 0.02 0.00 43 1013.8
20260509213103 55 16 5.0 18.0 0.00 0.02 0.00 43 1013.7
20260509211501 54 34 9.0 15.0 0.00 0.02 0.00 42 1013.9
20260509210108 55 75 8.0 13.0 0.00 0.02 0.00 43 1013.8
20260509204602 55 352 6.0 16.0 0.00 0.02 0.00 45 1013.7
20260509203059 55 3 10.0 17.0 0.00 0.02 0.00 43 1013.6
20260509201607 54 321 6.0 13.0 0.00 0.02 0.00 43 1013.6
20260509200107 55 326 7.0 17.0 0.00 0.02 0.00 43 1013.5
20260509194555 55 338 8.0 20.0 0.00 0.02 0.00 42 1013.6
20260509193056 55 324 10.0 19.0 0.00 0.02 0.00 44 1013.5
20260509191551 54 333 8.0 18.0 0.00 0.02 0.00 45 1013.6
20260509190049 53 25 11.0 21.0 0.00 0.02 0.00 45 1013.6
20260509184558 53 278 8.0 16.0 0.00 0.02 0.00 46 1013.6
20260509183047 53 15 10.0 23.0 0.00 0.02 0.00 48 1013.5
20260509181549 53 347 8.0 17.0 0.00 0.02 0.00 48 1013.5
20260509180043 52 343 11.0 20.0 0.00 0.02 0.00 50 1013.5
20260509174543 51 338 7.0 20.0 0.00 0.02 0.00 52 1013.6
20260509173039 51 352 5.0 20.0 0.00 0.02 0.00 55 1013.3
20260509171537 50 11 9.0 18.0 0.00 0.02 0.00 53 1013.5
20260509170036 50 13 8.0 15.0 0.00 0.02 0.00 54 1013.3
20260509164531 49 356 11.0 19.0 0.00 0.02 0.00 55 1013.4
20260509163029 49 18 10.0 21.0 0.00 0.02 0.00 57 1013.4
20260509161529 48 7 10.0 18.0 0.00 0.02 0.00 57 1013.2
20260509160032 48 329 9.0 18.0 0.00 0.02 0.00 58 1013.2
20260509154523 47 315 9.0 19.0 0.00 0.02 0.00 60 1013.1
20260509153034 47 347 7.0 18.0 0.00 0.02 0.00 62 1013.0
20260509151520 47 2 9.0 18.0 0.00 0.02 0.00 61 1013.0
20260509150027 46 329 7.0 15.0 0.00 0.02 0.00 64 1012.8
20260509144526 45 333 8.0 16.0 0.00 0.02 0.00 64 1012.7
20260509143018 45 323 8.0 16.0 0.00 0.02 0.00 65 1012.6
20260509141516 44 8 9.0 16.0 0.00 0.02 0.00 66 1012.4
20260509140012 44 342 8.0 16.0 0.00 0.02 0.00 66 1012.2
20260509134515 43 319 6.0 15.0 0.00 0.02 0.00 68 1012.1
20260509133014 43 339 5.0 12.0 0.00 0.02 0.00 66 1011.9
20260509131508 42 316 5.0 11.0 0.00 0.02 0.00 68 1011.7
20260509130003 41 318 4.0 10.0 0.00 0.02 0.00 72 1011.5
20260509124503 39 321 2.0 7.0 0.00 0.02 0.00 76 1011.4
20260509123131 38 333 3.0 6.0 0.00 0.02 0.00 78 1011.3
20260509121613 36 318 1.0 4.0 0.00 0.02 0.00 83 1011.0
20260509120112 34 300 1.0 4.0 0.00 0.02 0.00 84 1010.8
20260509114558 33 309 2.0 4.0 0.00 0.02 0.00 84 1010.5
20260509113050 34 309 2.0 4.0 0.00 0.02 0.00 81 1010.4
20260509111600 34 344 1.0 3.0 0.00 0.02 0.00 82 1010.0
20260509110044 34 299 1.0 4.0 0.00 0.02 0.00 82 1009.8
20260509104545 35 331 2.0 4.0 0.00 0.02 0.00 80 1009.6
20260509103041 36 316 2.0 5.0 0.00 0.02 0.00 82 1009.3
20260509101553 38 309 1.0 3.0 0.00 0.02 0.00 82 1009.1
20260509100032 39 342 2.0 5.0 0.00 0.02 0.00 78 1008.9
20260509094536 39 8 1.0 5.0 0.00 0.02 0.00 76 1008.6
20260509093027 39 36 0.0 4.0 0.00 0.02 0.00 79 1008.4
20260509091535 39 334 1.0 4.0 0.00 0.02 0.00 78 1008.1
20260509090024 40 37 3.0 7.0 0.00 0.02 0.00 78 1007.8
20260509084522 40 8 2.0 7.0 0.00 0.02 0.00 79 1007.6
20260509083016 40 2 2.0 7.0 0.00 0.02 0.00 79 1007.2
20260509081523 40 39 2.0 6.0 0.00 0.02 0.00 80 1006.9
20260509080012 39 18 2.0 7.0 0.00 0.02 0.00 82 1006.7